Time,TemperatureF,DewpointF,PressureIn,WindDirection,WindDirectionDegrees,WindSpeedMPH,WindSpeedGustMPH,Humidity,HourlyPrecipIn,Conditions,Clouds,dailyrainin,SoftwareType,DateUTC
2013-01-21 00:00:00,61.6,53.0,30.34,NNE,22,0.0,0.0,73,0.00,,,0.02,WUHU21623XXSP,2013-01-21 05:00:00,
2013-01-21 00:01:00,61.6,53.0,30.34,NNE,22,0.0,0.0,73,0.00,,,0.00,WUHU21623XXSP,2013-01-21 05:01:00,
2013-01-21 00:02:00,61.6,53.0,30.34,NNE,22,0.0,0.0,73,0.00,,,0.00,WUHU21623XXSP,2013-01-21 05:02:00,
2013-01-21 00:03:00,61.6,53.0,30.34,NNE,22,0.0,0.0,73,0.00,,,0.00,WUHU21623XXSP,2013-01-21 05:03:00,
2013-01-21 00:08:00,61.6,53.0,30.34,NNE,22,0.0,0.0,73,0.00,,,0.00,WUHU21623XXSP,2013-01-21 05:08:00,
2013-01-21 00:13:00,61.6,53.3,30.34,NNE,22,0.0,0.0,74,0.00,,,0.00,WUHU21623XXSP,2013-01-21 05:13:00,
2013-01-21 00:18:00,61.6,53.3,30.34,NNE,22,0.0,0.0,74,0.00,,,0.00,WUHU21623XXSP,2013-01-21 05:18:00,
2013-01-21 00:23:00,61.6,53.3,30.33,NNE,22,0.0,0.0,74,0.00,,,0.00,WUHU21623XXSP,2013-01-21 05:23:00,
2013-01-21 00:28:00,61.6,53.7,30.33,NNE,22,0.0,0.0,75,0.00,,,0.00,WUHU21623XXSP,2013-01-21 05:28:00,
2013-01-21 00:33:00,61.6,53.7,30.33,NNE,22,0.0,0.0,75,0.00,,,0.00,WUHU21623XXSP,2013-01-21 05:33:00,
2013-01-21 00:38:00,61.6,53.7,30.33,NNE,22,0.0,0.0,75,0.00,,,0.00,WUHU21623XXSP,2013-01-21 05:38:00,
2013-01-21 00:43:00,61.6,54.1,30.33,NNE,22,0.0,0.0,76,0.00,,,0.00,WUHU21623XXSP,2013-01-21 05:43:00,
2013-01-21 00:48:00,61.6,54.1,30.33,NNE,22,0.0,0.0,76,0.00,,,0.00,WUHU21623XXSP,2013-01-21 05:48:00,
2013-01-21 00:53:00,61.6,54.1,30.33,NNE,22,0.0,0.0,76,0.00,,,0.00,WUHU21623XXSP,2013-01-21 05:53:00,
2013-01-21 00:58:00,61.6,54.1,30.33,NNE,22,0.0,0.0,76,0.00,,,0.00,WUHU21623XXSP,2013-01-21 05:58:00,
2013-01-21 01:03:00,61.6,54.1,30.33,NNE,22,0.0,0.0,76,0.00,,,0.00,WUHU21623XXSP,2013-01-21 06:03:00,
2013-01-21 01:08:00,61.6,54.1,30.33,NNE,22,0.0,0.0,76,0.00,,,0.00,WUHU21623XXSP,2013-01-21 06:08:00,
2013-01-21 01:13:00,61.4,53.9,30.33,NNE,22,0.0,0.0,76,0.00,,,0.00,WUHU21623XXSP,2013-01-21 06:13:00,
2013-01-21 01:18:00,61.2,53.7,30.33,NNE,22,0.0,0.0,76,0.00,,,0.00,WUHU21623XXSP,2013-01-21 06:18:00,
2013-01-21 01:23:00,61.2,53.7,30.33,NNE,22,0.0,0.0,76,0.00,,,0.00,WUHU21623XXSP,2013-01-21 06:23:00,
2013-01-21 01:28:00,61.0,53.8,30.33,NNE,22,0.0,0.0,77,0.00,,,0.00,WUHU21623XXSP,2013-01-21 06:28:00,
2013-01-21 01:33:00,60.7,53.5,30.33,NNE,22,0.0,0.0,77,0.00,,,0.00,WUHU21623XXSP,2013-01-21 06:33:00,
2013-01-21 01:38:00,60.5,53.7,30.33,NNE,22,0.0,0.0,78,0.00,,,0.00,WUHU21623XXSP,2013-01-21 06:38:00,
2013-01-21 01:43:00,60.3,53.5,30.33,NNE,22,0.0,0.0,78,0.00,,,0.00,WUHU21623XXSP,2013-01-21 06:43:00,
2013-01-21 01:48:00,60.1,53.3,30.32,NNE,22,0.0,0.0,78,0.00,,,0.00,WUHU21623XXSP,2013-01-21 06:48:00,
2013-01-21 01:53:00,60.1,53.3,30.32,NNE,22,0.0,0.0,78,0.00,,,0.00,WUHU21623XXSP,2013-01-21 06:53:00,
2013-01-21 01:58:00,60.0,53.2,30.32,NNE,22,0.0,0.0,78,0.00,,,0.00,WUHU21623XXSP,2013-01-21 06:58:00,
2013-01-21 02:03:00,59.8,53.3,30.32,NNE,22,0.0,0.0,79,0.00,,,0.00,WUHU21623XXSP,2013-01-21 07:03:00,
2013-01-21 02:08:00,59.6,53.1,30.32,NNE,22,0.0,0.0,79,0.00,,,0.00,WUHU21623XXSP,2013-01-21 07:08:00,
2013-01-21 02:13:00,59.4,52.9,30.32,NNE,22,0.0,0.0,79,0.00,,,0.00,WUHU21623XXSP,2013-01-21 07:13:00,
2013-01-21 02:18:00,59.4,53.3,30.32,NNE,22,0.0,0.0,80,0.00,,,0.00,WUHU21623XXSP,2013-01-21 07:18:00,
2013-01-21 02:24:00,59.4,53.3,30.32,NNE,22,0.0,0.0,80,0.00,,,0.00,WUHU21623XXSP,2013-01-21 07:24:00,
2013-01-21 02:29:00,59.6,53.5,30.32,NNE,22,0.0,0.0,80,0.00,,,0.00,WUHU21623XXSP,2013-01-21 07:29:00,
2013-01-21 02:34:00,59.8,53.7,30.32,NNE,22,0.0,0.0,80,0.00,,,0.00,WUHU21623XXSP,2013-01-21 07:34:00,
2013-01-21 02:39:00,59.8,54.0,30.32,NNE,22,0.0,0.0,81,0.00,,,0.00,WUHU21623XXSP,2013-01-21 07:39:00,
2013-01-21 02:44:00,59.8,54.0,30.32,NNE,22,0.0,0.0,81,0.00,,,0.00,WUHU21623XXSP,2013-01-21 07:44:00,
2013-01-21 02:49:00,59.8,54.0,30.32,NNE,22,0.0,0.0,81,0.00,,,0.00,WUHU21623XXSP,2013-01-21 07:49:00,
2013-01-21 02:54:00,59.8,54.0,30.31,NNE,22,0.0,0.0,81,0.00,,,0.00,WUHU21623XXSP,2013-01-21 07:54:00,
2013-01-21 02:59:00,59.8,54.0,30.31,NNE,22,0.0,0.0,81,0.00,,,0.00,WUHU21623XXSP,2013-01-21 07:59:00,
2013-01-21 03:04:00,59.8,54.0,30.31,NNE,22,0.0,0.0,81,0.00,,,0.00,WUHU21623XXSP,2013-01-21 08:04:00,
2013-01-21 03:09:00,59.8,54.0,30.31,NNE,22,0.0,0.0,81,0.00,,,0.00,WUHU21623XXSP,2013-01-21 08:09:00,
2013-01-21 03:14:00,59.8,54.0,30.31,NNE,22,0.0,0.0,81,0.00,,,0.00,WUHU21623XXSP,2013-01-21 08:14:00,
2013-01-21 03:26:00,59.4,53.9,30.30,NNE,22,0.0,0.0,82,0.00,,,0.00,WUHU21623XXSP,2013-01-21 08:26:00,
2013-01-21 03:31:00,59.4,53.9,30.30,NNE,22,0.0,0.0,82,0.00,,,0.00,WUHU21623XXSP,2013-01-21 08:31:00,
2013-01-21 03:36:00,59.4,53.9,30.30,NNE,22,0.0,0.0,82,0.00,,,0.00,WUHU21623XXSP,2013-01-21 08:36:00,
2013-01-21 03:41:00,59.2,53.7,30.30,NNE,22,0.0,0.0,82,0.00,,,0.00,WUHU21623XXSP,2013-01-21 08:41:00,
2013-01-21 03:46:00,59.2,53.7,30.30,NNE,22,0.0,0.0,82,0.00,,,0.00,WUHU21623XXSP,2013-01-21 08:46:00,
2013-01-21 03:51:00,59.1,53.6,30.30,NNE,22,0.0,0.0,82,0.00,,,0.00,WUHU21623XXSP,2013-01-21 08:51:00,
2013-01-21 03:56:00,58.9,53.4,30.30,NNE,22,0.0,0.0,82,0.00,,,0.00,WUHU21623XXSP,2013-01-21 08:56:00,
2013-01-21 04:01:00,58.9,53.8,30.29,NNE,22,0.0,0.0,83,0.00,,,0.00,WUHU21623XXSP,2013-01-21 09:01:00,
2013-01-21 04:06:00,58.9,53.8,30.29,NNE,22,0.0,0.0,83,0.00,,,0.00,WUHU21623XXSP,2013-01-21 09:06:00,
2013-01-21 04:11:00,58.9,53.8,30.30,NNE,22,0.0,0.0,83,0.00,,,0.00,WUHU21623XXSP,2013-01-21 09:11:00,
2013-01-21 04:16:00,58.9,53.8,30.30,NNE,22,0.0,0.0,83,0.00,,,0.00,WUHU21623XXSP,2013-01-21 09:16:00,
2013-01-21 04:21:00,58.9,53.8,30.29,NNE,22,0.0,0.0,83,0.00,,,0.00,WUHU21623XXSP,2013-01-21 09:21:00,
2013-01-21 04:26:00,58.9,53.8,30.30,NNE,22,0.0,0.0,83,0.00,,,0.00,WUHU21623XXSP,2013-01-21 09:26:00,
2013-01-21 04:31:00,58.9,53.8,30.30,NNE,22,0.0,0.0,83,0.00,,,0.00,WUHU21623XXSP,2013-01-21 09:31:00,
2013-01-21 04:36:00,58.9,53.8,30.29,NNE,22,0.0,0.0,83,0.00,,,0.00,WUHU21623XXSP,2013-01-21 09:36:00,
2013-01-21 04:41:00,58.9,53.8,30.29,NNE,22,0.0,0.0,83,0.00,,,0.00,WUHU21623XXSP,2013-01-21 09:41:00,
2013-01-21 04:46:00,58.9,54.1,30.29,NNE,22,0.0,0.0,84,0.00,,,0.00,WUHU21623XXSP,2013-01-21 09:46:00,
2013-01-21 04:51:00,58.9,54.1,30.29,NNE,22,0.0,0.0,84,0.00,,,0.00,WUHU21623XXSP,2013-01-21 09:51:00,
2013-01-21 04:56:00,59.1,54.3,30.29,NNE,22,0.0,0.0,84,0.00,,,0.00,WUHU21623XXSP,2013-01-21 09:56:00,
2013-01-21 05:01:00,59.1,54.3,30.29,NNE,22,0.0,0.0,84,0.00,,,0.00,WUHU21623XXSP,2013-01-21 10:01:00,
2013-01-21 05:07:00,59.2,54.4,30.29,NNE,22,0.0,0.0,84,0.00,,,0.00,WUHU21623XXSP,2013-01-21 10:07:00,
2013-01-21 05:12:00,59.2,54.4,30.29,NNE,22,0.0,0.0,84,0.00,,,0.00,WUHU21623XXSP,2013-01-21 10:12:00,
2013-01-21 05:17:00,59.2,54.4,30.29,NNE,22,0.0,0.0,84,0.00,,,0.00,WUHU21623XXSP,2013-01-21 10:17:00,
2013-01-21 05:22:00,59.2,54.4,30.29,NNE,22,0.0,0.0,84,0.00,,,0.00,WUHU21623XXSP,2013-01-21 10:22:00,
2013-01-21 05:27:00,59.2,54.4,30.29,NNE,22,0.0,0.0,84,0.00,,,0.00,WUHU21623XXSP,2013-01-21 10:27:00,
2013-01-21 05:32:00,59.2,54.4,30.29,NNE,22,0.0,0.0,84,0.00,,,0.00,WUHU21623XXSP,2013-01-21 10:32:00,
2013-01-21 05:37:00,59.2,54.4,30.29,NNE,22,0.0,0.0,84,0.00,,,0.00,WUHU21623XXSP,2013-01-21 10:37:00,
2013-01-21 05:42:00,59.2,54.4,30.29,NNE,22,0.0,0.0,84,0.00,,,0.00,WUHU21623XXSP,2013-01-21 10:42:00,
2013-01-21 05:47:00,59.2,54.4,30.29,NNE,22,0.0,0.0,84,0.00,,,0.00,WUHU21623XXSP,2013-01-21 10:47:00,
2013-01-21 05:52:00,59.2,54.7,30.29,NNE,22,0.0,0.0,85,0.00,,,0.00,WUHU21623XXSP,2013-01-21 10:52:00,
2013-01-21 05:57:00,59.2,54.7,30.30,NNE,22,0.0,0.0,85,0.00,,,0.00,WUHU21623XXSP,2013-01-21 10:57:00,
2013-01-21 06:02:00,59.2,54.7,30.29,NNE,22,0.0,0.0,85,0.00,,,0.00,WUHU21623XXSP,2013-01-21 11:02:00,
2013-01-21 06:07:00,59.2,54.7,30.29,NNE,22,0.0,0.0,85,0.00,,,0.00,WUHU21623XXSP,2013-01-21 11:07:00,
2013-01-21 06:13:00,59.2,54.7,30.30,NNE,22,0.0,0.0,85,0.00,,,0.00,WUHU21623XXSP,2013-01-21 11:13:00,
2013-01-21 06:18:00,59.2,54.7,30.30,NNE,22,0.0,0.0,85,0.00,,,0.00,WUHU21623XXSP,2013-01-21 11:18:00,
2013-01-21 06:23:00,59.2,54.7,30.30,NNE,22,0.0,0.0,85,0.00,,,0.00,WUHU21623XXSP,2013-01-21 11:23:00,
2013-01-21 06:28:00,59.4,54.9,30.31,NNE,22,0.0,0.0,85,0.00,,,0.00,WUHU21623XXSP,2013-01-21 11:28:00,
2013-01-21 06:33:00,59.4,54.6,30.30,NNE,22,0.0,0.0,84,0.00,,,0.00,WUHU21623XXSP,2013-01-21 11:33:00,
2013-01-21 06:38:00,59.4,54.6,30.30,NNE,22,0.0,0.0,84,0.00,,,0.00,WUHU21623XXSP,2013-01-21 11:38:00,
2013-01-21 06:43:00,59.4,54.6,30.31,NNE,22,0.0,0.0,84,0.00,,,0.00,WUHU21623XXSP,2013-01-21 11:43:00,
2013-01-21 06:48:00,59.4,54.6,30.31,NNE,22,0.0,0.0,84,0.00,,,0.00,WUHU21623XXSP,2013-01-21 11:48:00,
2013-01-21 06:53:00,59.4,54.6,30.32,NNE,22,0.0,0.0,84,0.00,,,0.00,WUHU21623XXSP,2013-01-21 11:53:00,
2013-01-21 06:58:00,59.4,54.6,30.31,NNE,22,0.0,0.0,84,0.00,,,0.00,WUHU21623XXSP,2013-01-21 11:58:00,
2013-01-21 07:03:00,59.2,54.4,30.31,NNE,22,0.0,0.0,84,0.00,,,0.00,WUHU21623XXSP,2013-01-21 12:03:00,
2013-01-21 07:08:00,59.2,54.4,30.32,NNE,22,0.0,0.0,84,0.00,,,0.00,WUHU21623XXSP,2013-01-21 12:08:00,
2013-01-21 07:13:00,58.9,54.1,30.32,NNE,22,0.0,0.0,84,0.00,,,0.00,WUHU21623XXSP,2013-01-21 12:13:00,
2013-01-21 07:18:00,58.9,54.1,30.32,NNE,22,0.0,0.0,84,0.00,,,0.00,WUHU21623XXSP,2013-01-21 12:18:00,
2013-01-21 07:23:00,58.9,54.4,30.32,NNE,22,0.0,0.0,85,0.00,,,0.00,WUHU21623XXSP,2013-01-21 12:23:00,
2013-01-21 07:28:00,58.7,54.2,30.32,NNE,22,0.0,0.0,85,0.00,,,0.00,WUHU21623XXSP,2013-01-21 12:28:00,
2013-01-21 07:33:00,58.5,54.0,30.32,NNE,22,0.0,0.0,85,0.00,,,0.00,WUHU21623XXSP,2013-01-21 12:33:00,
2013-01-21 07:38:00,58.5,54.0,30.33,NNE,22,0.0,0.0,85,0.00,,,0.00,WUHU21623XXSP,2013-01-21 12:38:00,
2013-01-21 07:43:00,58.5,54.0,30.33,NNE,22,0.0,0.0,85,0.00,,,0.00,WUHU21623XXSP,2013-01-21 12:43:00,
2013-01-21 07:48:00,58.7,54.2,30.33,NNE,22,0.0,0.0,85,0.00,,,0.00,WUHU21623XXSP,2013-01-21 12:48:00,
2013-01-21 07:53:00,58.5,54.0,30.33,NNE,22,0.0,0.0,85,0.00,,,0.00,WUHU21623XXSP,2013-01-21 12:53:00,
2013-01-21 07:58:00,58.7,54.2,30.33,NNE,22,0.0,0.0,85,0.00,,,0.00,WUHU21623XXSP,2013-01-21 12:58:00,
2013-01-21 08:03:00,58.7,54.2,30.33,NNE,22,0.0,0.0,85,0.00,,,0.00,WUHU21623XXSP,2013-01-21 13:03:00,
2013-01-21 08:08:00,58.9,54.4,30.33,NNE,22,0.0,0.0,85,0.00,,,0.00,WUHU21623XXSP,2013-01-21 13:08:00,
2013-01-21 08:13:00,59.1,54.6,30.33,NNE,22,0.0,0.0,85,0.00,,,0.00,WUHU21623XXSP,2013-01-21 13:13:00,
2013-01-21 08:18:00,59.4,54.9,30.33,NNE,22,0.0,0.0,85,0.00,,,0.00,WUHU21623XXSP,2013-01-21 13:18:00,
2013-01-21 08:23:00,59.4,54.9,30.34,NNE,22,0.0,0.0,85,0.00,,,0.00,WUHU21623XXSP,2013-01-21 13:23:00,
2013-01-21 08:28:00,59.6,55.1,30.34,NNE,22,0.0,0.0,85,0.00,,,0.00,WUHU21623XXSP,2013-01-21 13:28:00,
2013-01-21 08:33:00,60.0,55.5,30.33,NNE,22,0.0,0.0,85,0.00,,,0.00,WUHU21623XXSP,2013-01-21 13:33:00,
2013-01-21 08:38:00,60.3,55.5,30.34,NNW,337,0.0,0.0,84,0.00,,,0.00,WUHU21623XXSP,2013-01-21 13:38:00,
2013-01-21 08:43:00,60.7,55.5,30.34,North,0,0.0,0.0,83,0.00,,,0.00,WUHU21623XXSP,2013-01-21 13:43:00,
2013-01-21 08:48:00,61.0,55.5,30.34,NNE,22,0.0,0.0,82,0.00,,,0.00,WUHU21623XXSP,2013-01-21 13:48:00,
2013-01-21 08:53:00,61.6,55.8,30.34,NNE,22,0.0,0.0,81,0.00,,,0.00,WUHU21623XXSP,2013-01-21 13:53:00,
2013-01-21 08:58:00,62.3,56.1,30.34,NNE,22,0.0,0.0,80,0.00,,,0.00,WUHU21623XXSP,2013-01-21 13:58:00,
2013-01-21 09:03:00,62.8,56.6,30.34,NNE,22,0.0,0.0,80,0.00,,,0.00,WUHU21623XXSP,2013-01-21 14:03:00,
2013-01-21 09:08:00,63.4,56.5,30.34,NE,45,0.0,0.0,78,0.00,,,0.00,WUHU21623XXSP,2013-01-21 14:08:00,
2013-01-21 09:13:00,63.7,56.4,30.34,NE,45,0.0,0.0,77,0.00,,,0.00,WUHU21623XXSP,2013-01-21 14:13:00,
2013-01-21 09:18:00,64.3,56.7,30.34,NE,45,0.0,0.0,76,0.00,,,0.00,WUHU21623XXSP,2013-01-21 14:18:00,
2013-01-21 09:23:00,64.6,56.6,30.34,NE,45,0.0,0.0,75,0.00,,,0.00,WUHU21623XXSP,2013-01-21 14:23:00,
2013-01-21 09:28:00,64.8,56.8,30.34,NE,45,0.0,0.0,75,0.00,,,0.00,WUHU21623XXSP,2013-01-21 14:28:00,
2013-01-21 09:33:00,65.4,57.0,30.34,NE,45,0.0,0.0,74,0.00,,,0.00,WUHU21623XXSP,2013-01-21 14:33:00,
2013-01-21 09:38:00,65.7,57.3,30.34,NNE,22,0.0,0.0,74,0.00,,,0.00,WUHU21623XXSP,2013-01-21 14:38:00,
2013-01-21 09:44:00,66.4,57.2,30.34,SE,135,0.0,0.0,72,0.00,,,0.00,WUHU21623XXSP,2013-01-21 14:44:00,
2013-01-21 09:49:00,66.4,57.2,30.34,NE,45,0.0,0.0,72,0.00,,,0.00,WUHU21623XXSP,2013-01-21 14:49:00,
2013-01-21 09:54:00,66.6,57.1,30.35,NE,45,0.0,0.0,71,0.00,,,0.00,WUHU21623XXSP,2013-01-21 14:54:00,
2013-01-21 09:59:00,67.0,57.4,30.35,ENE,67,0.0,0.0,71,0.00,,,0.00,WUHU21623XXSP,2013-01-21 14:59:00,
2013-01-21 10:04:00,67.2,57.2,30.35,ESE,112,0.0,0.0,70,0.00,,,0.00,WUHU21623XXSP,2013-01-21 15:04:00,
2013-01-21 10:09:00,67.3,57.3,30.36,ENE,67,0.0,0.0,70,0.00,,,0.00,WUHU21623XXSP,2013-01-21 15:09:00,
2013-01-21 10:14:00,67.5,57.5,30.36,NE,45,0.0,0.0,70,0.00,,,0.00,WUHU21623XXSP,2013-01-21 15:14:00,
2013-01-21 10:19:00,67.9,57.5,30.35,NE,45,0.0,0.0,69,0.00,,,0.00,WUHU21623XXSP,2013-01-21 15:19:00,
2013-01-21 10:24:00,68.2,58.2,30.35,ENE,67,0.0,0.0,70,0.00,,,0.00,WUHU21623XXSP,2013-01-21 15:24:00,
2013-01-21 10:29:00,68.8,58.4,30.36,ENE,67,0.0,0.0,69,0.00,,,0.00,WUHU21623XXSP,2013-01-21 15:29:00,
2013-01-21 10:34:00,69.0,58.6,30.36,ENE,67,0.0,0.0,69,0.00,,,0.00,WUHU21623XXSP,2013-01-21 15:34:00,
2013-01-21 10:39:00,69.1,58.7,30.36,ENE,67,0.0,0.0,69,0.00,,,0.00,WUHU21623XXSP,2013-01-21 15:39:00,
2013-01-21 10:44:00,69.3,58.9,30.35,NE,45,0.0,0.0,69,0.00,,,0.00,WUHU21623XXSP,2013-01-21 15:44:00,
2013-01-21 10:49:00,69.7,59.7,30.35,ENE,67,0.0,0.0,70,0.00,,,0.00,WUHU21623XXSP,2013-01-21 15:49:00,
2013-01-21 10:53:00,69.9,59.8,30.35,NE,45,0.0,0.0,70,0.00,,,0.00,WUHU21623XXSP,2013-01-21 15:53:00,
2013-01-21 10:58:00,70.0,59.9,30.35,NNE,22,0.0,0.0,70,0.00,,,0.00,WUHU21623XXSP,2013-01-21 15:58:00,
2013-01-21 11:03:00,70.6,60.9,30.35,ENE,67,0.0,0.0,71,0.00,,,0.00,WUHU21623XXSP,2013-01-21 16:03:00,
2013-01-21 11:08:00,70.9,61.2,30.34,SE,135,0.0,0.0,71,0.00,,,0.00,WUHU21623XXSP,2013-01-21 16:08:00,
2013-01-21 11:13:00,71.3,61.6,30.34,ENE,67,0.0,0.0,71,0.00,,,0.00,WUHU21623XXSP,2013-01-21 16:13:00,
2013-01-21 11:18:00,71.5,61.4,30.34,SE,135,0.0,0.0,70,0.00,,,0.00,WUHU21623XXSP,2013-01-21 16:18:00,
2013-01-21 11:23:00,71.8,61.7,30.34,East,90,0.0,0.0,70,0.00,,,0.00,WUHU21623XXSP,2013-01-21 16:23:00,
2013-01-21 11:28:00,72.0,60.6,30.34,SW,225,0.0,0.0,67,0.00,,,0.00,WUHU21623XXSP,2013-01-21 16:28:00,
2013-01-21 11:33:00,72.2,60.8,30.34,West,270,0.0,0.0,67,0.00,,,0.00,WUHU21623XXSP,2013-01-21 16:33:00,
2013-01-21 11:38:00,71.8,60.0,30.34,NW,315,0.0,0.0,66,0.00,,,0.00,WUHU21623XXSP,2013-01-21 16:38:00,
2013-01-21 11:44:00,71.8,60.0,30.33,West,270,0.0,0.0,66,0.00,,,0.00,WUHU21623XXSP,2013-01-21 16:44:00,
2013-01-21 11:49:00,72.4,60.2,30.34,NW,315,0.0,0.0,65,0.00,,,0.00,WUHU21623XXSP,2013-01-21 16:49:00,
2013-01-21 11:54:00,72.7,59.6,30.34,WNW,292,0.0,0.0,63,0.00,,,0.00,WUHU21623XXSP,2013-01-21 16:54:00,
2013-01-21 11:59:00,72.9,59.3,30.34,WNW,292,0.0,0.0,62,0.00,,,0.00,WUHU21623XXSP,2013-01-21 16:59:00,
2013-01-21 12:04:00,72.7,59.1,30.34,NNW,337,0.0,0.0,62,0.00,,,0.00,WUHU21623XXSP,2013-01-21 17:04:00,
2013-01-21 12:09:00,71.8,58.3,30.34,NNE,22,0.0,0.0,62,0.00,,,0.00,WUHU21623XXSP,2013-01-21 17:09:00,
2013-01-21 12:14:00,70.9,57.9,30.33,NNW,337,0.0,0.0,63,0.00,,,0.00,WUHU21623XXSP,2013-01-21 17:14:00,
2013-01-21 12:19:00,70.8,57.8,30.33,North,0,0.0,0.0,63,0.00,,,0.00,WUHU21623XXSP,2013-01-21 17:19:00,
2013-01-21 12:24:00,70.9,57.4,30.32,NNW,337,0.0,0.0,62,0.00,,,0.00,WUHU21623XXSP,2013-01-21 17:24:00,
2013-01-21 12:29:00,71.1,57.6,30.32,West,270,0.0,0.0,62,0.00,,,0.00,WUHU21623XXSP,2013-01-21 17:29:00,
2013-01-21 12:34:00,71.5,58.0,30.31,NNE,22,0.0,0.0,62,0.00,,,0.00,WUHU21623XXSP,2013-01-21 17:34:00,
2013-01-21 12:39:00,71.7,58.2,30.31,WNW,292,0.0,0.0,62,0.00,,,0.00,WUHU21623XXSP,2013-01-21 17:39:00,
2013-01-21 12:44:00,72.2,58.7,30.31,NW,315,0.0,0.0,62,0.00,,,0.00,WUHU21623XXSP,2013-01-21 17:44:00,
2013-01-21 12:49:00,72.7,58.2,30.31,NW,315,0.0,0.0,60,0.00,,,0.00,WUHU21623XXSP,2013-01-21 17:49:00,
2013-01-21 12:54:00,72.7,58.2,30.31,WNW,292,0.0,0.0,60,0.00,,,0.00,WUHU21623XXSP,2013-01-21 17:54:00,
2013-01-21 12:59:00,72.7,58.2,30.30,NW,315,0.0,0.0,60,0.00,,,0.00,WUHU21623XXSP,2013-01-21 17:59:00,
2013-01-21 13:04:00,72.4,58.4,30.30,NW,315,0.0,0.0,61,0.00,,,0.00,WUHU21623XXSP,2013-01-21 18:04:00,
2013-01-21 13:09:00,72.4,58.4,30.29,North,0,0.0,0.0,61,0.00,,,0.00,WUHU21623XXSP,2013-01-21 18:09:00,
2013-01-21 13:14:00,72.6,58.6,30.29,NE,45,0.0,0.0,61,0.00,,,0.00,WUHU21623XXSP,2013-01-21 18:14:00,
2013-01-21 13:19:00,72.6,58.6,30.29,WNW,292,0.0,0.0,61,0.00,,,0.00,WUHU21623XXSP,2013-01-21 18:19:00,
2013-01-21 13:24:00,72.6,58.6,30.29,West,270,0.0,0.0,61,0.00,,,0.00,WUHU21623XXSP,2013-01-21 18:24:00,
2013-01-21 13:29:00,72.2,58.2,30.29,WNW,292,0.0,0.0,61,0.00,,,0.00,WUHU21623XXSP,2013-01-21 18:29:00,
2013-01-21 13:34:00,71.7,58.2,30.29,NW,315,0.0,0.0,62,0.00,,,0.00,WUHU21623XXSP,2013-01-21 18:34:00,
2013-01-21 13:39:00,70.9,57.4,30.29,West,270,0.0,0.0,62,0.00,,,0.00,WUHU21623XXSP,2013-01-21 18:39:00,
2013-01-21 13:44:00,70.2,57.2,30.30,NW,315,0.0,0.0,63,0.00,,,0.00,WUHU21623XXSP,2013-01-21 18:44:00,
2013-01-21 13:49:00,69.9,57.4,30.30,NNW,337,0.0,0.0,64,0.00,,,0.00,WUHU21623XXSP,2013-01-21 18:49:00,
2013-01-21 13:54:00,69.5,57.4,30.30,NNW,337,0.0,0.0,65,0.00,,,0.00,WUHU21623XXSP,2013-01-21 18:54:00,
2013-01-21 13:59:00,69.5,57.4,30.29,NW,315,0.0,0.0,65,0.00,,,0.00,WUHU21623XXSP,2013-01-21 18:59:00,
2013-01-21 14:04:00,70.2,57.6,30.29,NNW,337,0.0,0.0,64,0.00,,,0.00,WUHU21623XXSP,2013-01-21 19:04:00,
2013-01-21 14:09:00,70.2,57.6,30.29,NW,315,0.0,0.0,64,0.00,,,0.00,WUHU21623XXSP,2013-01-21 19:09:00,
2013-01-21 14:14:00,70.6,58.0,30.29,West,270,0.0,0.0,64,0.00,,,0.00,WUHU21623XXSP,2013-01-21 19:14:00,
2013-01-21 14:19:00,70.6,58.0,30.29,NNW,337,0.0,0.0,64,0.00,,,0.00,WUHU21623XXSP,2013-01-21 19:19:00,
2013-01-21 14:24:00,70.4,57.8,30.29,NW,315,0.0,0.0,64,0.00,,,0.00,WUHU21623XXSP,2013-01-21 19:24:00,
2013-01-21 14:29:00,70.0,57.5,30.29,West,270,0.0,0.0,64,0.00,,,0.00,WUHU21623XXSP,2013-01-21 19:29:00,
2013-01-21 14:34:00,70.2,57.6,30.29,NNW,337,0.0,0.0,64,0.00,,,0.00,WUHU21623XXSP,2013-01-21 19:34:00,
2013-01-21 14:39:00,70.0,57.5,30.29,NW,315,0.0,0.0,64,0.00,,,0.00,WUHU21623XXSP,2013-01-21 19:39:00,
2013-01-21 14:44:00,69.5,57.4,30.28,NNW,337,0.0,0.0,65,0.00,,,0.00,WUHU21623XXSP,2013-01-21 19:44:00,
2013-01-21 14:49:00,69.1,57.0,30.28,WNW,292,0.0,0.0,65,0.00,,,0.00,WUHU21623XXSP,2013-01-21 19:49:00,
2013-01-21 14:54:00,68.8,57.2,30.29,NW,315,0.0,0.0,66,0.00,,,0.00,WUHU21623XXSP,2013-01-21 19:54:00,
2013-01-21 14:59:00,69.0,57.4,30.29,NE,45,0.0,0.0,66,0.00,,,0.00,WUHU21623XXSP,2013-01-21 19:59:00,
2013-01-21 15:04:00,68.8,56.7,30.29,WNW,292,0.0,0.0,65,0.00,,,0.00,WUHU21623XXSP,2013-01-21 20:04:00,
2013-01-21 15:09:00,68.8,57.2,30.29,West,270,0.0,0.0,66,0.00,,,0.00,WUHU21623XXSP,2013-01-21 20:09:00,
2013-01-21 15:14:00,68.8,57.2,30.29,NW,315,0.0,0.0,66,0.00,,,0.00,WUHU21623XXSP,2013-01-21 20:14:00,
2013-01-21 15:19:00,68.4,56.8,30.29,WNW,292,0.0,0.0,66,0.00,,,0.00,WUHU21623XXSP,2013-01-21 20:19:00,
2013-01-21 15:24:00,68.4,57.2,30.29,NNE,22,0.0,0.0,67,0.00,,,0.00,WUHU21623XXSP,2013-01-21 20:24:00,
2013-01-21 15:29:00,68.4,57.2,30.29,NNW,337,0.0,0.0,67,0.00,,,0.00,WUHU21623XXSP,2013-01-21 20:29:00,
2013-01-21 15:34:00,68.2,57.0,30.29,NNW,337,0.0,0.0,67,0.00,,,0.00,WUHU21623XXSP,2013-01-21 20:34:00,
2013-01-21 15:39:00,67.9,57.1,30.29,NNW,337,0.0,0.0,68,0.00,,,0.00,WUHU21623XXSP,2013-01-21 20:39:00,
2013-01-21 15:44:00,67.3,56.9,30.29,NNW,337,0.0,0.0,69,0.00,,,0.00,WUHU21623XXSP,2013-01-21 20:44:00,
2013-01-21 15:49:00,67.2,57.2,30.29,WNW,292,0.0,0.0,70,0.00,,,0.00,WUHU21623XXSP,2013-01-21 20:49:00,
2013-01-21 15:55:00,67.0,57.4,30.29,NW,315,0.0,0.0,71,0.00,,,0.00,WUHU21623XXSP,2013-01-21 20:55:00,
2013-01-21 16:00:00,67.0,57.4,30.29,NNW,337,0.0,0.0,71,0.00,,,0.00,WUHU21623XXSP,2013-01-21 21:00:00,
2013-01-21 16:05:00,66.4,57.2,30.29,NW,315,0.0,0.0,72,0.00,,,0.00,WUHU21623XXSP,2013-01-21 21:05:00,
2013-01-21 16:10:00,65.9,56.4,30.29,NW,315,0.0,0.0,71,0.00,,,0.00,WUHU21623XXSP,2013-01-21 21:10:00,
2013-01-21 16:15:00,65.4,55.9,30.29,NNW,337,0.0,0.0,71,0.00,,,0.00,WUHU21623XXSP,2013-01-21 21:15:00,
2013-01-21 16:20:00,64.8,54.9,30.29,NNW,337,0.0,0.0,70,0.00,,,0.00,WUHU21623XXSP,2013-01-21 21:20:00,
2013-01-21 16:25:00,64.5,54.7,30.29,NE,45,0.0,0.0,70,0.00,,,0.00,WUHU21623XXSP,2013-01-21 21:25:00,
2013-01-21 16:30:00,64.3,54.8,30.29,NNW,337,0.0,0.0,71,0.00,,,0.00,WUHU21623XXSP,2013-01-21 21:30:00,
2013-01-21 16:35:00,64.1,54.6,30.29,NNW,337,0.0,0.0,71,0.00,,,0.00,WUHU21623XXSP,2013-01-21 21:35:00,
2013-01-21 16:40:00,64.1,54.6,30.29,NW,315,0.0,0.0,71,0.00,,,0.00,WUHU21623XXSP,2013-01-21 21:40:00,
2013-01-21 16:45:00,64.1,55.0,30.30,NE,45,0.0,0.0,72,0.00,,,0.00,WUHU21623XXSP,2013-01-21 21:45:00,
2013-01-21 16:50:00,64.1,54.6,30.29,WNW,292,0.0,0.0,71,0.00,,,0.00,WUHU21623XXSP,2013-01-21 21:50:00,
2013-01-21 16:55:00,64.1,54.6,30.29,NW,315,0.0,0.0,71,0.00,,,0.00,WUHU21623XXSP,2013-01-21 21:55:00,
2013-01-21 17:00:00,63.9,54.5,30.30,WNW,292,0.0,0.0,71,0.00,,,0.00,WUHU21623XXSP,2013-01-21 22:00:00,
2013-01-21 17:05:00,63.7,54.6,30.30,WNW,292,0.0,0.0,72,0.00,,,0.00,WUHU21623XXSP,2013-01-21 22:05:00,
2013-01-21 17:10:00,63.4,54.4,30.29,NW,315,0.0,0.0,72,0.00,,,0.00,WUHU21623XXSP,2013-01-21 22:10:00,
2013-01-21 17:15:00,63.2,54.2,30.29,NW,315,0.0,0.0,72,0.00,,,0.00,WUHU21623XXSP,2013-01-21 22:15:00,
2013-01-21 17:20:00,63.0,53.6,30.30,North,0,0.0,0.0,71,0.00,,,0.00,WUHU21623XXSP,2013-01-21 22:20:00,
2013-01-21 17:25:00,62.8,53.4,30.30,North,0,0.0,0.0,71,0.00,,,0.00,WUHU21623XXSP,2013-01-21 22:25:00,
2013-01-21 17:30:00,62.5,52.7,30.30,NNE,22,0.0,0.0,70,0.00,,,0.00,WUHU21623XXSP,2013-01-21 22:30:00,
2013-01-21 17:35:00,62.1,52.3,30.30,NNW,337,0.0,0.0,70,0.00,,,0.00,WUHU21623XXSP,2013-01-21 22:35:00,
2013-01-21 17:40:00,62.1,52.7,30.30,NNE,22,0.0,0.0,71,0.00,,,0.00,WUHU21623XXSP,2013-01-21 22:40:00,
2013-01-21 17:45:00,61.9,52.5,30.31,NNW,337,0.0,0.0,71,0.00,,,0.00,WUHU21623XXSP,2013-01-21 22:45:00,
2013-01-21 17:50:00,61.8,52.8,30.30,NW,315,0.0,0.0,72,0.00,,,0.00,WUHU21623XXSP,2013-01-21 22:50:00,
2013-01-21 17:55:00,61.6,52.6,30.31,WNW,292,0.0,0.0,72,0.00,,,0.00,WUHU21623XXSP,2013-01-21 22:55:00,
2013-01-21 18:00:00,61.4,52.0,30.31,NNE,22,0.0,0.0,71,0.00,,,0.00,WUHU21623XXSP,2013-01-21 23:00:00,
2013-01-21 18:05:00,61.2,51.9,30.31,NW,315,0.0,0.0,71,0.00,,,0.00,WUHU21623XXSP,2013-01-21 23:05:00,
2013-01-21 18:10:00,61.0,52.0,30.31,NW,315,0.0,0.0,72,0.00,,,0.00,WUHU21623XXSP,2013-01-21 23:10:00,
2013-01-21 18:15:00,61.0,52.0,30.31,NW,315,0.0,0.0,72,0.00,,,0.00,WUHU21623XXSP,2013-01-21 23:15:00,
2013-01-21 18:20:00,60.7,51.7,30.30,NW,315,0.0,0.0,72,0.00,,,0.00,WUHU21623XXSP,2013-01-21 23:20:00,
2013-01-21 18:25:00,60.7,51.7,30.31,NW,315,0.0,0.0,72,0.00,,,0.00,WUHU21623XXSP,2013-01-21 23:25:00,
2013-01-21 18:30:00,60.5,51.6,30.31,NW,315,0.0,0.0,72,0.00,,,0.00,WUHU21623XXSP,2013-01-21 23:30:00,
2013-01-21 18:35:00,60.3,51.4,30.31,NW,315,0.0,0.0,72,0.00,,,0.00,WUHU21623XXSP,2013-01-21 23:35:00,
2013-01-21 18:40:00,60.3,51.4,30.31,NNW,337,0.0,0.0,72,0.00,,,0.00,WUHU21623XXSP,2013-01-21 23:40:00,
2013-01-21 18:45:00,60.1,51.2,30.31,NNW,337,0.0,0.0,72,0.00,,,0.00,WUHU21623XXSP,2013-01-21 23:45:00,
2013-01-21 18:50:00,60.1,51.2,30.31,NW,315,0.0,0.0,72,0.00,,,0.00,WUHU21623XXSP,2013-01-21 23:50:00,
2013-01-21 18:55:00,60.0,51.1,30.30,NW,315,0.0,0.0,72,0.00,,,0.00,WUHU21623XXSP,2013-01-21 23:55:00,
2013-01-21 19:01:00,59.8,51.2,30.30,NNW,337,0.0,0.0,73,0.00,,,0.00,WUHU21623XXSP,2013-01-22 00:01:00,
2013-01-21 19:06:00,59.6,51.1,30.30,NNW,337,0.0,0.0,73,0.00,,,0.00,WUHU21623XXSP,2013-01-22 00:06:00,
2013-01-21 19:11:00,59.4,50.9,30.31,NW,315,0.0,0.0,73,0.00,,,0.00,WUHU21623XXSP,2013-01-22 00:11:00,
2013-01-21 19:16:00,59.4,50.9,30.30,NW,315,0.0,0.0,73,0.00,,,0.00,WUHU21623XXSP,2013-01-22 00:16:00,
2013-01-21 19:21:00,59.2,50.7,30.30,NW,315,0.0,0.0,73,0.00,,,0.00,WUHU21623XXSP,2013-01-22 00:21:00,
2013-01-21 19:26:00,59.2,51.0,30.31,NW,315,0.0,0.0,74,0.00,,,0.00,WUHU21623XXSP,2013-01-22 00:26:00,
2013-01-21 19:31:00,59.2,51.0,30.31,NW,315,0.0,0.0,74,0.00,,,0.00,WUHU21623XXSP,2013-01-22 00:31:00,
2013-01-21 19:36:00,59.1,50.9,30.30,NW,315,0.0,0.0,74,0.00,,,0.00,WUHU21623XXSP,2013-01-22 00:36:00,
2013-01-21 19:41:00,58.9,50.7,30.30,NW,315,0.0,0.0,74,0.00,,,0.00,WUHU21623XXSP,2013-01-22 00:41:00,
2013-01-21 19:46:00,58.9,50.7,30.30,NW,315,0.0,0.0,74,0.00,,,0.00,WUHU21623XXSP,2013-01-22 00:46:00,
2013-01-21 19:51:00,58.7,50.5,30.31,NW,315,0.0,0.0,74,0.00,,,0.00,WUHU21623XXSP,2013-01-22 00:51:00,
2013-01-21 19:56:00,58.5,50.3,30.31,NW,315,0.0,0.0,74,0.00,,,0.00,WUHU21623XXSP,2013-01-22 00:56:00,
2013-01-21 20:01:00,58.3,50.5,30.31,NW,315,0.0,0.0,75,0.00,,,0.00,WUHU21623XXSP,2013-01-22 01:01:00,
2013-01-21 20:06:00,58.3,50.5,30.31,NW,315,0.0,0.0,75,0.00,,,0.00,WUHU21623XXSP,2013-01-22 01:06:00,
2013-01-21 20:11:00,58.2,50.4,30.31,NW,315,0.0,0.0,75,0.00,,,0.00,WUHU21623XXSP,2013-01-22 01:11:00,
2013-01-21 20:16:00,58.0,50.6,30.31,NW,315,0.0,0.0,76,0.00,,,0.00,WUHU21623XXSP,2013-01-22 01:16:00,
2013-01-21 20:21:00,58.0,50.6,30.32,NW,315,0.0,0.0,76,0.00,,,0.00,WUHU21623XXSP,2013-01-22 01:21:00,
2013-01-21 20:26:00,57.6,50.2,30.32,NW,315,0.0,0.0,76,0.00,,,0.00,WUHU21623XXSP,2013-01-22 01:26:00,
2013-01-21 20:31:00,57.4,50.0,30.32,NW,315,0.0,0.0,76,0.00,,,0.00,WUHU21623XXSP,2013-01-22 01:31:00,
2013-01-21 20:36:00,57.4,50.3,30.32,NW,315,0.0,0.0,77,0.00,,,0.00,WUHU21623XXSP,2013-01-22 01:36:00,
2013-01-21 20:41:00,57.1,50.0,30.32,NW,315,0.0,0.0,77,0.00,,,0.00,WUHU21623XXSP,2013-01-22 01:41:00,
2013-01-21 20:46:00,56.9,49.8,30.32,NW,315,0.0,0.0,77,0.00,,,0.00,WUHU21623XXSP,2013-01-22 01:46:00,
2013-01-21 20:51:00,56.7,50.0,30.33,NW,315,0.0,0.0,78,0.00,,,0.00,WUHU21623XXSP,2013-01-22 01:51:00,
2013-01-21 20:56:00,56.7,50.0,30.33,West,270,0.0,0.0,78,0.00,,,0.00,WUHU21623XXSP,2013-01-22 01:56:00,
2013-01-21 21:01:00,56.7,50.3,30.33,West,270,0.0,0.0,79,0.00,,,0.00,WUHU21623XXSP,2013-01-22 02:01:00,
2013-01-21 21:06:00,56.9,50.5,30.33,West,270,0.0,0.0,79,0.00,,,0.00,WUHU21623XXSP,2013-01-22 02:06:00,
2013-01-21 21:11:00,56.9,50.8,30.34,NW,315,0.0,0.0,80,0.00,,,0.00,WUHU21623XXSP,2013-01-22 02:11:00,
2013-01-21 21:16:00,57.1,51.0,30.33,NW,315,0.0,0.0,80,0.00,,,0.00,WUHU21623XXSP,2013-01-22 02:16:00,
2013-01-21 21:21:00,57.1,51.0,30.34,NW,315,0.0,0.0,80,0.00,,,0.00,WUHU21623XXSP,2013-01-22 02:21:00,
2013-01-21 21:26:00,57.4,51.3,30.34,NW,315,0.0,0.0,80,0.00,,,0.00,WUHU21623XXSP,2013-01-22 02:26:00,
2013-01-21 21:31:00,57.4,51.3,30.33,NW,315,0.0,0.0,80,0.00,,,0.00,WUHU21623XXSP,2013-01-22 02:31:00,
2013-01-21 21:36:00,57.6,51.5,30.34,NW,315,0.0,0.0,80,0.00,,,0.00,WUHU21623XXSP,2013-01-22 02:36:00,
2013-01-21 21:41:00,57.6,51.5,30.34,NNW,337,0.0,0.0,80,0.00,,,0.00,WUHU21623XXSP,2013-01-22 02:41:00,
2013-01-21 21:46:00,58.0,51.6,30.34,NNW,337,0.0,0.0,79,0.00,,,0.00,WUHU21623XXSP,2013-01-22 02:46:00,
2013-01-21 21:51:00,58.2,51.8,30.34,NNW,337,0.0,0.0,79,0.00,,,0.00,WUHU21623XXSP,2013-01-22 02:51:00,
2013-01-21 21:56:00,58.3,51.5,30.34,North,0,0.0,0.0,78,0.00,,,0.00,WUHU21623XXSP,2013-01-22 02:56:00,
2013-01-21 22:01:00,58.3,51.5,30.34,North,0,0.0,0.0,78,0.00,,,0.00,WUHU21623XXSP,2013-01-22 03:01:00,
2013-01-21 22:06:00,58.5,51.4,30.34,North,0,0.0,0.0,77,0.00,,,0.00,WUHU21623XXSP,2013-01-22 03:06:00,
2013-01-21 22:11:00,58.5,51.4,30.34,North,0,0.0,0.0,77,0.00,,,0.00,WUHU21623XXSP,2013-01-22 03:11:00,
2013-01-21 22:16:00,58.5,51.4,30.34,NE,45,0.0,0.0,77,0.00,,,0.00,WUHU21623XXSP,2013-01-22 03:16:00,
2013-01-21 22:21:00,58.5,51.1,30.35,NNE,22,0.0,0.0,76,0.00,,,0.00,WUHU21623XXSP,2013-01-22 03:21:00,
2013-01-21 22:26:00,58.5,51.1,30.34,NNE,22,0.0,0.0,76,0.00,,,0.00,WUHU21623XXSP,2013-01-22 03:26:00,
2013-01-21 22:31:00,58.5,50.7,30.34,WNW,292,0.0,0.0,75,0.00,,,0.00,WUHU21623XXSP,2013-01-22 03:31:00,
2013-01-21 22:36:00,58.5,50.7,30.34,ENE,67,0.0,0.0,75,0.00,,,0.00,WUHU21623XXSP,2013-01-22 03:36:00,
2013-01-21 22:41:00,58.5,50.3,30.34,NNE,22,0.0,0.0,74,0.00,,,0.00,WUHU21623XXSP,2013-01-22 03:41:00,
2013-01-21 22:46:00,58.5,50.3,30.34,NNE,22,0.0,0.0,74,0.00,,,0.00,WUHU21623XXSP,2013-01-22 03:46:00,
2013-01-21 22:51:00,58.5,50.3,30.34,NNW,337,0.0,0.0,74,0.00,,,0.00,WUHU21623XXSP,2013-01-22 03:51:00,
2013-01-21 22:56:00,58.5,50.3,30.34,NNE,22,0.0,0.0,74,0.00,,,0.00,WUHU21623XXSP,2013-01-22 03:56:00,
2013-01-21 23:01:00,58.5,50.3,30.33,NE,45,0.0,0.0,74,0.00,,,0.00,WUHU21623XXSP,2013-01-22 04:01:00,
2013-01-21 23:06:00,58.5,50.3,30.34,North,0,0.0,0.0,74,0.00,,,0.00,WUHU21623XXSP,2013-01-22 04:06:00,
2013-01-21 23:11:00,58.3,50.2,30.34,North,0,0.0,0.0,74,0.00,,,0.00,WUHU21623XXSP,2013-01-22 04:11:00,
2013-01-21 23:16:00,58.2,50.1,30.34,North,0,0.0,0.0,74,0.00,,,0.00,WUHU21623XXSP,2013-01-22 04:16:00,
2013-01-21 23:21:00,58.2,50.1,30.35,North,0,0.0,0.0,74,0.00,,,0.00,WUHU21623XXSP,2013-01-22 04:21:00,
2013-01-21 23:26:00,58.0,49.9,30.35,North,0,0.0,0.0,74,0.00,,,0.00,WUHU21623XXSP,2013-01-22 04:26:00,
2013-01-21 23:31:00,57.6,49.5,30.35,North,0,0.0,0.0,74,0.00,,,0.00,WUHU21623XXSP,2013-01-22 04:31:00,
2013-01-21 23:36:00,57.4,49.3,30.35,North,0,0.0,0.0,74,0.00,,,0.00,WUHU21623XXSP,2013-01-22 04:36:00,
2013-01-21 23:41:00,57.1,49.3,30.35,North,0,0.0,0.0,75,0.00,,,0.00,WUHU21623XXSP,2013-01-22 04:41:00,
2013-01-21 23:46:00,56.9,49.2,30.35,North,0,0.0,0.0,75,0.00,,,0.00,WUHU21623XXSP,2013-01-22 04:46:00,
2013-01-21 23:51:00,56.7,49.0,30.35,North,0,0.0,0.0,75,0.00,,,0.00,WUHU21623XXSP,2013-01-22 04:51:00,
2013-01-21 23:56:00,56.7,49.0,30.35,North,0,0.0,0.0,75,0.00,,,0.00,WUHU21623XXSP,2013-01-22 04:56:00,